Overview Statistics Trail Chart Weather Telemetry Raw packets
 

This is the latest recevied weather packets stored in our database for station/object EA3AGY-13. If no packets are shown the sender has not sent any weather packets the latest 10 day(s).

<< 3 4 5 6 7 8 9 >>
Time Temp. Humidity Pressure Rain* Wind** Luminosity Snow
1788388097 15.56° C 46% 1024.7 hPa 0 mm - - -
1788384484 16.67° C 43% 1024.7 hPa 0 mm - - -
1788380266 17.22° C 41% 1024.8 hPa 0 mm - - -
1788379664 16.67° C 38% 1024.8 hPa 0 mm - - -
1788376051 19.44° C 32% 1024.2 hPa 0 mm - - -
1788375447 19.44° C 34% 1024.1 hPa 0 mm - - -
1788374845 19.44° C 32% 1024 hPa 0 mm - - -
1788374242 20° C 33% 1023.9 hPa 0 mm - - -
1788373640 20° C 34% 1023.8 hPa 0 mm - - -
1788371833 21.67° C 25% 1023.6 hPa 0 mm - - -
1788370628 22.78° C 22% 1023.6 hPa 0 mm - - -
1788368817 23.89° C 17% 1023.4 hPa 0 mm - - -
1788368216 23.89° C 16% 1023.4 hPa 0 mm - - -
1788364602 27.78° C 9% 1023.1 hPa 0 mm - - -
1788363396 -27.78° C 12% 1023.3 hPa 0 mm - - -
1788361589 26.67° C 14% 1023.1 hPa 0 mm - - -
1788360384 27.78° C 15% 1023.1 hPa 0 mm - - -
1788359180 26.67° C 17% 1023.2 hPa 0 mm - - -
1788356169 25.56° C 19% 1023.4 hPa 0 mm - - -
1788354360 25.56° C 23% 1023.3 hPa 0 mm - - -
1788350142 24.44° C 27% 1023.5 hPa 0 mm - - -
1788348935 24.44° C 26% 1023.6 hPa 0 mm - - -
1788340505 20.56° C 42% 1023.8 hPa 0 mm - - -
1788336923 19.44° C 44% 1023.3 hPa 0 mm - - -
1788336888 19.44° C 44% 1023.3 hPa 0 mm - - -

* Rain since midnight (hover to see other rain measurements)
** Current wind speed in m/s (hover to see current wind gust speed)